Resoconti di bolidi

Oct 01, 2021 - Oct 31, 2021
Trovati resoconti: 4152  in October 2021  Pagina 70 / 84
IDDate e tempo T.U. (Tempo Universale)Data e tempo localeRegioneCittàStatoDur.MagnitudineSuono differitoSuono contemporaneoFrag.OsservatoreLivello di esperienza
Evento 6338-2021
6338a2021-10-06 03:15 UT2021-10-05 20:15 PDTUS CarlsbadCA≈1,5s -13???NatalieD 2
Evento 6336-2021
6336a2021-10-06 02:10 UT2021-10-05 22:10 EDTUS New PhiladelphiaOH≈3,5s -11-?-Melody K 2
Evento 6335-2021
6335a2021-10-06 01:05 UT2021-10-05 20:05 CDTUS HutchinsonKS≈3,5s -8--reneaA 1
6335b2021-10-06 01:22 UT2021-10-05 20:22 CDTUS EdmondOK≈3,5s -7--?KristenA 3
6335c2021-10-06 01:22 UT2021-10-05 20:22 CDTUS WinfieldKS≈3,5s -11--KaydeeR 3
6335d2021-10-06 01:30 UT2021-10-05 20:30 CDTUS SalinaKS≈3,5s -8--GaigeF 1
6335e2021-10-06 01:23 UT2021-10-05 20:23 CDTUS WichitaKS≈3,5s -12--DylanW 3
Evento 6334-2021
6334a2021-10-06 00:30 UT2021-10-05 20:30 EDTUS MasonMI≈3,5s -19??-KathyL 2
6334b2021-10-06 00:32 UT2021-10-05 20:32 EDTUS Birch RunMI≈1,5s -14---MiaB 2
6334c2021-10-06 00:36 UT2021-10-05 20:36 EDTUS VicksburgMI≈1,5s -14-??TaraK 2
6334d2021-10-06 00:40 UT2021-10-05 19:40 CDTUS SchaumburgIL≈7,5s -13---LoriN 1
6334e2021-10-06 01:00 UT2021-10-05 21:00 EDTUS OwossoMI≈1,5s -6---SteveR 2
6334f2021-10-06 00:30 UT2021-10-05 20:30 EDTUS KewadinMI≈7,5s -12---PHILLIPV 1
6334g2021-10-06 01:00 UT2021-10-05 21:00 EDTUS Comstock ParkMI≈3,5s -22---JoeS 1
Evento 6333-2021
6333a2021-10-05 22:50 UT2021-10-06 00:50 CESTFR Sanary-sur-MerProvence-Alpes-Côte d'Azur≈1,5s -5---FlorenceB 4
Evento 6332-2021
6332a2021-10-05 23:49 UT2021-10-06 00:49 BSTGB GrundisburghEngland<1s -8???AlanS 4
Evento 6331-2021
6331a2021-10-05 23:48 UT2021-10-06 00:48 ?DE BorkumLower Saxony<1s -7---RS 4
Evento 6330-2021
6330a2021-10-05 23:25 UT2021-10-05 19:25 EDTUS Fort MillSC<1s -10---CG 3
Evento 6329-2021
6329a2021-10-05 22:50 UT2021-10-05 23:50 BSTGB ExminsterEngland≈1,5s -8---RyanB 1
6329b2021-10-05 22:50 UT2021-10-05 23:50 BSTGB WarminsterEngland≈1,5s -13---BenG 1
6329c2021-10-05 23:05 UT2021-10-06 00:05 BSTGB Wales≈1,5s -13---Matthew E 1
Evento 6328-2021
6328a2021-10-05 22:49 UT2021-10-05 23:49 BSTGB England≈3,5s -18--?RichardE 1
6328b2021-10-05 22:55 UT2021-10-05 23:55 BSTGB England≈1,5s -4---CatherineI 2
Evento 6327-2021
6327a2021-10-05 22:45 UT2021-10-05 23:45 BSTGB South HartingEngland≈3,5s -9--DanniC 2
6327b2021-10-05 22:48 UT2021-10-05 23:48 BSTGB England≈3,5s -14??OliviaW 2
6327c2021-10-05 22:49 UT2021-10-05 23:49 BSTGB ChelmondistonEngland≈7,5s -7--ChrisD 1
6327e2021-10-05 22:50 UT2021-10-05 23:50 BSTGB EttingtonEngland≈1,5s -7---IainS 1
6327f2021-10-05 22:50 UT2021-10-05 23:50 BSTGB Shipton-under-WychwoodEngland≈3,5s -9---Deborah M 1
6327g2021-10-05 22:50 UT2021-10-05 23:50 BSTGB England≈3,5s -13--JosephS 2
6327h2021-10-05 22:50 UT2021-10-05 23:50 BSTGB LongboroughEngland≈1,5s -9---RosieW 1
6327k2021-10-05 22:53 UT2021-10-05 23:53 BSTGB England≈3,5s -12--?AngelaJ 2
6327l2021-10-05 22:55 UT2021-10-05 23:55 BSTGB Wales≈1,5s -16---KerryM 3
6327m2021-10-05 22:57 UT2021-10-05 23:57 BSTGB England≈3,5s -13---LornaA 3
6327n2021-10-05 22:54 UT2021-10-05 23:54 BSTGB ChinehamEngland≈7,5s -13???Dave H 4
6327o2021-10-05 22:58 UT2021-10-05 23:58 BSTGB MaidstoneEngland≈7,5s -16-?Becky R 1
6327p2021-10-05 22:48 UT2021-10-05 23:48 BSTGB BrynsadlerWales≈1,5s -5--?SusieS 2
Evento 6326-2021
6326a2021-10-05 21:50 UT2021-10-05 23:50 CESTIT MolinaraCampania≈7,5s -5--AlfonsoF 3
6326b2021-10-05 22:00 UT2021-10-06 00:00 CESTIT SonninoLazio≈3,5s -14--LucianaB 2
6326c2021-10-05 22:00 UT2021-10-06 00:00 CESTIT MartinsicuroAbruzzo≈20s -13--SamuelZ 1
6326d2021-10-05 22:01 UT2021-10-06 00:01 CESTIT CiampinoLazio≈3,5s -5--MarcoD 1
Evento 6325-2021
6325a2021-10-05 21:10 UT2021-10-05 23:10 CESTFR NiceProvence-Alpes-Côte d'Azur≈1,5s -13---Jean Claude J 1
Evento 6324-2021
6324a2021-10-05 21:03 UT2021-10-05 22:03 BSTGB Scotland<1s -9---IainA 2
Evento 6323-2021
6323a2021-10-05 19:46 UT2021-10-05 21:46 CESTNL DeventerOverijssel≈3,5s -11--GwenI 1
Evento 6322-2021
6322a2021-10-05 18:03 UT2021-10-05 20:03 CESTFR ArgyCentre-Val de Loire<1s -7??-HugoL 3
Evento 6321-2021
6321a2021-10-05 10:56 UT2021-10-05 05:56 CDTUS AustinTX<1s -4---DouglasM 1
Evento 6320-2021
6320a2021-10-05 05:23 UT2021-10-05 01:23 EDTUS VassalboroME≈3,5s -8??Michael T 3
Evento 6319-2021
6319a2021-10-05 00:00 UT2021-10-05 01:00 BSTGB England≈3,5s -18---MarkA 1
Evento 6318-2021
6318a2021-10-05 10:42 UT2021-10-05 05:42 CDTUS MinneapolisMN≈1,5s -5---NateH 2
Evento 6317-2021
6317a2021-10-05 07:45 UT2021-10-05 02:45 CDTUS StewartvilleMN≈1,5s -11---BrianM 2
Evento 6316-2021
6316a2021-10-04 10:30 UT2021-10-04 04:30 MDTUS BreckenridgeCO≈3,5s 0?Glenn H 1